Overview Statistics Trail Chart Weather Telemetry Raw packets
 

This is the latest recevied weather packets stored in our database for station/object 9M2SPN-3. If no packets are shown the sender has not sent any weather packets the latest 10 day(s).

<< 1 2 3 4 5 >>
Time Temp. Humidity Pressure Rain* Wind** Luminosity Snow
1788568226 36.67° C 52% 1009.9 hPa - - - -
1788566425 35.56° C 54% 1009.7 hPa - - - -
1788564624 35° C 55% 1009.1 hPa - - - -
1788562823 35° C 56% 1008.9 hPa - - - -
1788561022 35° C 55% 1008.7 hPa - - - -
1788559221 35.56° C 55% 1008.6 hPa - - - -
1788557421 35° C 55% 1008.2 hPa - - - -
1788555620 35° C 55% 1007.8 hPa - - - -
1788553819 35.56° C 55% 1007.8 hPa - - - -
1788552018 35.56° C 55% 1008 hPa - - - -
1788550217 35.56° C 54% 1008 hPa - - - -
1788548417 35.56° C 54% 1008 hPa - - - -
1788546616 35.56° C 54% 1008 hPa - - - -
1788544815 35.56° C 54% 1008.3 hPa - - - -
1788543014 36.11° C 54% 1008.4 hPa - - - -
1788541213 36.11° C 54% 1008.6 hPa - - - -
1788539412 36.11° C 53% 1008.9 hPa - - - -
1788537611 36.11° C 53% 1009 hPa - - - -
1788535810 36.11° C 52% 1009.1 hPa - - - -
1788534010 36.11° C 53% 1008.7 hPa - - - -
1788532209 36.11° C 53% 1008.6 hPa - - - -
1788530408 37.22° C 51% 1008.4 hPa - - - -
1788528607 37.22° C 52% 1008 hPa - - - -
1788526806 37.22° C 52% 1007.7 hPa - - - -
1788525005 37.78° C 51% 1007.4 hPa - - - -

* Rain since midnight (hover to see other rain measurements)
** Current wind speed in m/s (hover to see current wind gust speed)